User: anonymous   Login
Location: Unspecified
(0.0000°N, 0.0000°E)
Time: 01:49:48
(UTC+00:00)
Language:

STARLINK-11431 [DTC] - Orbit

View from above orbital plane
View from above orbital plane
View from above satellite
View from above satellite

Ground track
Ground track

The orbit is defined by the following mean orbital elements,

1 62890U          26145.51089451 +.00000000 +00000-0 +19371-2 0 00002
2 62890  42.9996  78.8417 0000683  18.9549 341.1344 15.70899267    08
Epoch (UTC): 25 May 2026 12:15:41
Eccentricity: 0.0000683
inclination: 42.9996°
perigee height: 356 km
apogee height: 357 km
right ascension of ascending node: 78.8417°
argument of perigee: 18.9549°
revolutions per day: 15.70899267
mean anomaly at epoch: 341.1344°

The dashed part of the orbit path shows where the satellite is in the earth's shadow,  

DLR